| time (UTC) | temp F | wind direction | speed MPH | gust MPH | rain 1hr in | rain 24hr in | rain mn in | humidity % | barometer mb |
| 20260504024028 | 57 | 0 | 0.0 | 1.0 | 0.00 | 0.08 | 0.08 | 72 | 1006.5 |
| 20260504023529 | 57 | 0 | 0.0 | 2.0 | 0.00 | 0.08 | 0.08 | 71 | 1006.5 |
| 20260504023038 | 57 | 196 | 0.0 | 2.0 | 0.00 | 0.08 | 0.08 | 71 | 1006.4 |
| 20260504022529 | 57 | 0 | 0.0 | 1.0 | 0.00 | 0.08 | 0.08 | 70 | 1006.2 |
| 20260504022032 | 58 | 0 | 0.0 | 1.0 | 0.00 | 0.08 | 0.08 | 69 | 1006.2 |
| 20260504021547 | 58 | 0 | 0.0 | 2.0 | 0.00 | 0.08 | 0.08 | 68 | 1006.2 |
| 20260504021028 | 59 | 234 | 0.0 | 2.0 | 0.00 | 0.08 | 0.08 | 67 | 1006.2 |
| 20260504020528 | 59 | 230 | 0.0 | 2.0 | 0.00 | 0.08 | 0.08 | 66 | 1006.1 |
| 20260504020042 | 60 | 169 | 0.0 | 6.0 | 0.00 | 0.08 | 0.08 | 65 | 1006.1 |
| 20260504015530 | 60 | 168 | 0.0 | 6.0 | 0.00 | 0.08 | 0.08 | 65 | 1006.0 |
| 20260504015029 | 60 | 143 | 2.0 | 6.0 | 0.00 | 0.08 | 0.08 | 64 | 1006.1 |
| 20260504014545 | 61 | 185 | 1.0 | 6.0 | 0.00 | 0.08 | 0.08 | 64 | 1006.0 |
| 20260504014026 | 61 | 181 | 2.0 | 6.0 | 0.00 | 0.08 | 0.08 | 63 | 1005.9 |
| 20260504013526 | 61 | 162 | 1.0 | 5.0 | 0.00 | 0.08 | 0.08 | 63 | 1005.8 |
| 20260504013051 | 61 | 217 | 1.0 | 5.0 | 0.00 | 0.08 | 0.08 | 63 | 1005.8 |
| 20260504012531 | 61 | 201 | 2.0 | 5.0 | 0.00 | 0.08 | 0.08 | 62 | 1006.0 |
| 20260504012025 | 62 | 266 | 1.0 | 5.0 | 0.00 | 0.08 | 0.08 | 62 | 1005.9 |
| 20260504011545 | 62 | 219 | 2.0 | 5.0 | 0.00 | 0.08 | 0.08 | 61 | 1005.9 |
| 20260504011028 | 62 | 226 | 1.0 | 5.0 | 0.00 | 0.08 | 0.08 | 61 | 1005.9 |
| 20260504010529 | 62 | 195 | 2.0 | 5.0 | 0.00 | 0.08 | 0.08 | 60 | 1005.9 |
| 20260504010051 | 63 | 219 | 1.0 | 5.0 | 0.00 | 0.08 | 0.08 | 60 | 1005.9 |
| 20260504005529 | 63 | 163 | 1.0 | 4.0 | 0.00 | 0.08 | 0.08 | 59 | 1005.9 |
| 20260504005029 | 63 | 234 | 1.0 | 3.0 | 0.00 | 0.08 | 0.08 | 59 | 1005.8 |
| 20260504004545 | 64 | 221 | 1.0 | 6.0 | 0.00 | 0.08 | 0.08 | 58 | 1005.7 |
| 20260504004030 | 64 | 169 | 1.0 | 7.0 | 0.00 | 0.08 | 0.08 | 57 | 1005.8 |
| 20260504003528 | 65 | 123 | 1.0 | 7.0 | 0.00 | 0.08 | 0.08 | 56 | 1005.8 |
| 20260504003042 | 65 | 169 | 2.0 | 8.0 | 0.00 | 0.08 | 0.08 | 55 | 1005.8 |
| 20260504002528 | 65 | 176 | 2.0 | 9.0 | 0.00 | 0.08 | 0.08 | 55 | 1005.8 |
| 20260504002026 | 65 | 65 | 2.0 | 9.0 | 0.00 | 0.08 | 0.08 | 55 | 1005.9 |
| 20260504001540 | 66 | 204 | 3.0 | 9.0 | 0.00 | 0.08 | 0.08 | 55 | 1005.9 |
| 20260504001026 | 66 | 143 | 3.0 | 10.0 | 0.00 | 0.08 | 0.08 | 55 | 1005.9 |
| 20260504000527 | 66 | 187 | 2.0 | 10.0 | 0.00 | 0.08 | 0.08 | 55 | 1005.8 |
| 20260504000044 | 66 | 269 | 3.0 | 10.0 | 0.00 | 0.08 | 0.08 | 54 | 1005.9 |
| 20260503235530 | 67 | 250 | 4.0 | 10.0 | 0.00 | 0.08 | 0.08 | 53 | 1005.9 |
| 20260503235026 | 67 | 204 | 3.0 | 10.0 | 0.00 | 0.08 | 0.08 | 53 | 1006.0 |
| 20260503234536 | 67 | 218 | 3.0 | 12.0 | 0.00 | 0.08 | 0.08 | 52 | 1006.0 |
| 20260503234029 | 67 | 215 | 4.0 | 12.0 | 0.00 | 0.08 | 0.08 | 51 | 1005.9 |
| 20260503233529 | 67 | 216 | 4.0 | 12.0 | 0.00 | 0.08 | 0.08 | 52 | 1005.9 |
| 20260503233046 | 67 | 316 | 3.0 | 12.0 | 0.00 | 0.08 | 0.08 | 51 | 1005.9 |
| 20260503232529 | 67 | 261 | 5.0 | 12.0 | 0.00 | 0.08 | 0.08 | 51 | 1005.9 |
| 20260503232030 | 67 | 239 | 4.0 | 12.0 | 0.00 | 0.08 | 0.08 | 51 | 1005.9 |
| 20260503231549 | 68 | 218 | 4.0 | 13.0 | 0.00 | 0.08 | 0.08 | 51 | 1005.7 |
| 20260503231031 | 68 | 279 | 4.0 | 13.0 | 0.00 | 0.08 | 0.08 | 50 | 1005.9 |
| 20260503230531 | 68 | 263 | 5.0 | 15.0 | 0.00 | 0.08 | 0.08 | 50 | 1006.1 |
| 20260503230043 | 68 | 250 | 4.0 | 15.0 | 0.00 | 0.08 | 0.08 | 50 | 1006.1 |
| 20260503225529 | 68 | 179 | 4.0 | 15.0 | 0.00 | 0.08 | 0.08 | 50 | 1006.2 |
| 20260503225031 | 68 | 307 | 5.0 | 17.0 | 0.00 | 0.08 | 0.08 | 50 | 1006.2 |
| 20260503224538 | 68 | 116 | 6.0 | 17.0 | 0.00 | 0.08 | 0.08 | 49 | 1006.2 |
| 20260503224030 | 68 | 192 | 3.0 | 14.0 | 0.00 | 0.08 | 0.08 | 51 | 1006.2 |
| 20260503223533 | 68 | 17 | 4.0 | 14.0 | 0.00 | 0.08 | 0.08 | 48 | 1006.3 |
| 20260503223039 | 69 | 223 | 4.0 | 15.0 | 0.00 | 0.08 | 0.08 | 49 | 1006.3 |
| 20260503222530 | 69 | 179 | 5.0 | 15.0 | 0.00 | 0.08 | 0.08 | 48 | 1006.5 |
| 20260503222030 | 69 | 167 | 5.0 | 16.0 | 0.00 | 0.08 | 0.08 | 50 | 1006.4 |
| 20260503221537 | 68 | 220 | 5.0 | 16.0 | 0.00 | 0.08 | 0.08 | 50 | 1006.4 |
| 20260503221031 | 68 | 122 | 6.0 | 15.0 | 0.00 | 0.08 | 0.08 | 50 | 1006.7 |
| 20260503220531 | 68 | 187 | 4.0 | 9.0 | 0.00 | 0.08 | 0.08 | 49 | 1006.6 |
| 20260503220047 | 67 | 114 | 3.0 | 9.0 | 0.00 | 0.08 | 0.08 | 50 | 1006.6 |
| 20260503215531 | 66 | 169 | 3.0 | 12.0 | 0.00 | 0.08 | 0.08 | 50 | 1006.6 |
| 20260503215030 | 66 | 258 | 4.0 | 12.0 | 0.00 | 0.08 | 0.08 | 50 | 1006.6 |
| 20260503214543 | 67 | 301 | 5.0 | 13.0 | 0.00 | 0.08 | 0.08 | 49 | 1006.8 |
| 20260503214030 | 67 | 167 | 5.0 | 13.0 | 0.00 | 0.08 | 0.08 | 49 | 1006.8 |
| 20260503213530 | 66 | 233 | 4.0 | 13.0 | 0.00 | 0.08 | 0.08 | 50 | 1006.9 |
| 20260503213043 | 66 | 235 | 5.0 | 11.0 | 0.00 | 0.08 | 0.08 | 51 | 1007.0 |
| 20260503212530 | 66 | 195 | 5.0 | 11.0 | 0.00 | 0.08 | 0.08 | 51 | 1006.9 |
| 20260503212030 | 66 | 168 | 4.0 | 12.0 | 0.00 | 0.08 | 0.08 | 52 | 1006.9 |
| 20260503211539 | 66 | 136 | 6.0 | 12.0 | 0.00 | 0.08 | 0.08 | 52 | 1007.2 |
| 20260503211030 | 65 | 214 | 5.0 | 11.0 | 0.00 | 0.08 | 0.08 | 53 | 1007.3 |
| 20260503210531 | 65 | 246 | 5.0 | 14.0 | 0.00 | 0.08 | 0.08 | 52 | 1007.4 |
| 20260503210043 | 65 | 229 | 4.0 | 14.0 | 0.00 | 0.08 | 0.08 | 51 | 1007.5 |
| 20260503205532 | 65 | 158 | 6.0 | 18.0 | 0.00 | 0.08 | 0.08 | 50 | 1007.7 |
| 20260503205031 | 65 | 171 | 5.0 | 18.0 | 0.00 | 0.08 | 0.08 | 51 | 1007.7 |
| 20260503204542 | 65 | 187 | 6.0 | 15.0 | 0.00 | 0.08 | 0.08 | 51 | 1007.9 |
| 20260503204027 | 64 | 255 | 6.0 | 15.0 | 0.00 | 0.08 | 0.08 | 52 | 1008.0 |
| 20260503203530 | 64 | 192 | 6.0 | 15.0 | 0.00 | 0.08 | 0.08 | 50 | 1008.1 |
| 20260503203049 | 65 | 206 | 6.0 | 15.0 | 0.00 | 0.08 | 0.08 | 50 | 1008.2 |
| 20260503202529 | 65 | 211 | 6.0 | 15.0 | 0.00 | 0.08 | 0.08 | 49 | 1008.3 |
| 20260503202029 | 65 | 271 | 7.0 | 14.0 | 0.00 | 0.08 | 0.08 | 49 | 1008.3 |
| 20260503201544 | 64 | 136 | 5.0 | 17.0 | 0.00 | 0.08 | 0.08 | 48 | 1008.3 |
| 20260503201028 | 65 | 197 | 4.0 | 17.0 | 0.00 | 0.08 | 0.08 | 51 | 1008.5 |
| 20260503200528 | 65 | 169 | 6.0 | 17.0 | 0.00 | 0.08 | 0.08 | 48 | 1008.5 |
| 20260503200040 | 66 | 210 | 5.0 | 17.0 | 0.00 | 0.08 | 0.08 | 49 | 1008.5 |
| 20260503195528 | 66 | 152 | 7.0 | 17.0 | 0.00 | 0.08 | 0.08 | 47 | 1008.5 |
| 20260503195028 | 66 | 179 | 7.0 | 17.0 | 0.00 | 0.08 | 0.08 | 49 | 1008.6 |
| 20260503194545 | 66 | 238 | 7.0 | 15.0 | 0.00 | 0.08 | 0.08 | 50 | 1008.8 |
| 20260503194028 | 64 | 215 | 5.0 | 22.0 | 0.00 | 0.08 | 0.08 | 52 | 1008.8 |
| 20260503193529 | 64 | 33 | 6.0 | 22.0 | 0.00 | 0.08 | 0.08 | 52 | 1008.7 |
| 20260503193045 | 64 | 253 | 9.0 | 19.0 | 0.00 | 0.08 | 0.08 | 51 | 1008.9 |
| 20260503192527 | 65 | 207 | 10.0 | 19.0 | 0.00 | 0.08 | 0.08 | 50 | 1008.9 |
| 20260503192028 | 65 | 138 | 9.0 | 21.0 | 0.00 | 0.08 | 0.08 | 52 | 1008.7 |
| 20260503191543 | 64 | 170 | 9.0 | 21.0 | 0.00 | 0.08 | 0.08 | 53 | 1009.0 |
| 20260503191028 | 64 | 172 | 9.0 | 21.0 | 0.00 | 0.08 | 0.08 | 54 | 1008.9 |
| 20260503190527 | 63 | 256 | 7.0 | 25.0 | 0.00 | 0.08 | 0.08 | 58 | 1009.1 |
| 20260503190045 | 63 | 226 | 9.0 | 25.0 | 0.00 | 0.08 | 0.08 | 57 | 1009.2 |
| 20260503185529 | 63 | 167 | 7.0 | 15.0 | 0.00 | 0.08 | 0.08 | 61 | 1009.4 |
| 20260503185030 | 62 | 167 | 8.0 | 15.0 | 0.00 | 0.08 | 0.08 | 60 | 1009.3 |
| 20260503184545 | 62 | 156 | 5.0 | 22.0 | 0.00 | 0.08 | 0.08 | 64 | 1009.4 |
| 20260503184029 | 61 | 130 | 9.0 | 22.0 | 0.00 | 0.08 | 0.08 | 64 | 1009.7 |
| 20260503183528 | 61 | 208 | 6.0 | 14.0 | 0.00 | 0.08 | 0.08 | 67 | 1009.7 |
| 20260503183036 | 60 | 128 | 8.0 | 18.0 | 0.00 | 0.08 | 0.08 | 66 | 1009.9 |
| 20260503182527 | 59 | 150 | 7.0 | 18.0 | 0.00 | 0.08 | 0.08 | 68 | 1009.9 |
| 20260503182027 | 59 | 141 | 6.0 | 16.0 | 0.00 | 0.08 | 0.08 | 69 | 1010.1 |
| 20260503181543 | 58 | 162 | 5.0 | 12.0 | 0.00 | 0.08 | 0.08 | 74 | 1010.3 |
| 20260503181028 | 57 | 137 | 5.0 | 11.0 | 0.00 | 0.08 | 0.08 | 78 | 1010.3 |
| 20260503180529 | 56 | 164 | 6.0 | 12.0 | 0.00 | 0.08 | 0.08 | 78 | 1010.6 |
| 20260503180054 | 55 | 192 | 5.0 | 12.0 | 0.00 | 0.08 | 0.08 | 80 | 1010.7 |
| 20260503175528 | 54 | 172 | 5.0 | 12.0 | 0.00 | 0.08 | 0.08 | 82 | 1010.9 |
| 20260503175026 | 52 | 185 | 4.0 | 8.0 | 0.00 | 0.08 | 0.08 | 83 | 1011.0 |
| 20260503174546 | 51 | 162 | 4.0 | 7.0 | 0.00 | 0.08 | 0.08 | 85 | 1011.2 |
| 20260503174028 | 50 | 160 | 3.0 | 8.0 | 0.00 | 0.08 | 0.08 | 85 | 1011.4 |
| 20260503173526 | 50 | 186 | 3.0 | 8.0 | 0.00 | 0.08 | 0.08 | 85 | 1011.5 |
| 20260503173047 | 50 | 150 | 3.0 | 7.0 | 0.01 | 0.08 | 0.08 | 85 | 1011.6 |
| 20260503172525 | 49 | 197 | 2.0 | 9.0 | 0.01 | 0.08 | 0.08 | 86 | 1011.9 |
| 20260503172028 | 49 | 127 | 3.0 | 9.0 | 0.01 | 0.08 | 0.08 | 86 | 1012.1 |
| 20260503171537 | 49 | 175 | 3.0 | 9.0 | 0.01 | 0.08 | 0.08 | 86 | 1012.7 |
| 20260503171026 | 49 | 211 | 2.0 | 5.0 | 0.01 | 0.08 | 0.08 | 86 | 1012.6 |
| 20260503170530 | 49 | 169 | 3.0 | 4.0 | 0.01 | 0.08 | 0.08 | 86 | 1012.8 |
| 20260503150530 | 51 | 189 | 3.0 | 11.0 | 0.00 | 0.00 | 0.00 | 71 | 1014.4 |
| 20260503131027 | 50 | 240 | 4.0 | 9.0 | 0.00 | 0.00 | 0.00 | 68 | 1014.4 |
| 20260503130527 | 50 | 206 | 4.0 | 10.0 | 0.00 | 0.00 | 0.00 | 67 | 1014.6 |
| 20260503110530 | 44 | 225 | 1.0 | 5.0 | 0.00 | 0.00 | 0.00 | 72 | 1014.3 |
| 20260503081544 | 43 | 0 | 0.0 | 2.0 | 0.00 | 0.00 | 0.00 | 71 | 1015.0 |
| 20260503081030 | 43 | 208 | 0.0 | 2.0 | 0.00 | 0.00 | 0.00 | 71 | 1015.0 |
| 20260503080530 | 43 | 210 | 0.0 | 2.0 | 0.00 | 0.00 | 0.00 | 70 | 1015.1 |
| 20260503072551 | 44 | 183 | 1.0 | 3.0 | 0.00 | 0.00 | 0.00 | 69 | 1014.9 |
| 20260503072029 | 43 | 141 | 1.0 | 4.0 | 0.00 | 0.00 | 0.00 | 68 | 1014.8 |
| 20260503071536 | 43 | 233 | 1.0 | 4.0 | 0.00 | 0.00 | 0.00 | 69 | 1015.0 |
| 20260503071028 | 43 | 221 | 1.0 | 3.0 | 0.00 | 0.00 | 0.00 | 69 | 1014.9 |
| 20260503070532 | 43 | 139 | 1.0 | 3.0 | 0.00 | 0.00 | 0.00 | 68 | 1015.1 |
| 20260503060107 | 44 | 204 | 1.0 | 3.0 | 0.00 | 0.00 | 0.00 | 66 | 1015.7 |
| 20260503055028 | 43 | 163 | 0.0 | 3.0 | 0.00 | 0.00 | 0.00 | 66 | 1015.7 |
| 20260503054543 | 43 | 220 | 0.0 | 2.0 | 0.00 | 0.00 | 0.00 | 67 | 1015.7 |
| 20260503054030 | 43 | 217 | 0.0 | 2.0 | 0.00 | 0.00 | 0.00 | 67 | 1015.8 |
| 20260503053529 | 43 | 0 | 0.0 | 3.0 | 0.00 | 0.00 | 0.00 | 67 | 1015.8 |
| 20260503053042 | 43 | 150 | 0.0 | 3.0 | 0.00 | 0.00 | 0.00 | 67 | 1015.9 |
| 20260503052527 | 43 | 167 | 0.0 | 3.0 | 0.00 | 0.00 | 0.00 | 67 | 1015.9 |
| 20260503052032 | 43 | 190 | 0.0 | 1.0 | 0.00 | 0.00 | 0.00 | 67 | 1015.8 |
| 20260503051543 | 44 | 164 | 0.0 | 1.0 | 0.00 | 0.00 | 0.00 | 67 | 1016.0 |
| 20260503051032 | 44 | 224 | 0.0 | 2.0 | 0.00 | 0.00 | 0.00 | 67 | 1016.0 |
| 20260503050529 | 44 | 131 | 0.0 | 2.0 | 0.00 | 0.00 | 0.00 | 67 | 1015.8 |
| 20260503050043 | 44 | 0 | 0.0 | 2.0 | 0.00 | 0.00 | 0.00 | 67 | 1016.0 |
| 20260503045529 | 44 | 160 | 0.0 | 2.0 | 0.00 | 0.00 | 0.00 | 67 | 1016.0 |
| 20260503045028 | 44 | 0 | 0.0 | 2.0 | 0.00 | 0.00 | 0.00 | 67 | 1016.1 |
| 20260503044538 | 44 | 200 | 0.0 | 2.0 | 0.00 | 0.00 | 0.00 | 67 | 1016.1 |
| 20260503044029 | 44 | 0 | 0.0 | 1.0 | 0.00 | 0.00 | 0.00 | 66 | 1016.1 |
| 20260503043526 | 44 | 0 | 0.0 | 2.0 | 0.00 | 0.00 | 0.00 | 66 | 1016.1 |
| 20260503043050 | 45 | 203 | 0.0 | 4.0 | 0.00 | 0.00 | 0.00 | 65 | 1016.1 |
| 20260503042530 | 45 | 243 | 0.0 | 4.0 | 0.00 | 0.00 | 0.00 | 65 | 1016.1 |
| 20260503042030 | 45 | 0 | 0.0 | 2.0 | 0.00 | 0.00 | 0.00 | 65 | 1016.1 |
| 20260503041543 | 45 | 165 | 0.0 | 1.0 | 0.00 | 0.00 | 0.00 | 65 | 1016.1 |
| 20260503041029 | 45 | 0 | 0.0 | 1.0 | 0.00 | 0.00 | 0.00 | 65 | 1016.1 |
| 20260503040529 | 45 | 224 | 0.0 | 1.0 | 0.00 | 0.00 | 0.00 | 65 | 1016.1 |
| 20260503040055 | 45 | 214 | 0.0 | 2.0 | 0.00 | 0.00 | 0.00 | 65 | 1016.2 |
| 20260503035530 | 45 | 0 | 0.0 | 2.0 | 0.00 | 0.00 | 0.00 | 64 | 1016.3 |
| 20260503035029 | 45 | 0 | 0.0 | 2.0 | 0.00 | 0.00 | 0.00 | 64 | 1016.3 |
| 20260503034543 | 45 | 233 | 0.0 | 2.0 | 0.00 | 0.00 | 0.00 | 64 | 1016.4 |
| 20260503034030 | 45 | 239 | 0.0 | 2.0 | 0.00 | 0.00 | 0.00 | 64 | 1016.3 |
| 20260503033530 | 45 | 147 | 0.0 | 2.0 | 0.00 | 0.00 | 0.00 | 65 | 1016.2 |
| 20260503033040 | 45 | 0 | 0.0 | 2.0 | 0.00 | 0.00 | 0.00 | 65 | 1016.3 |
| 20260503032529 | 45 | 0 | 0.0 | 2.0 | 0.00 | 0.00 | 0.00 | 66 | 1016.2 |
| 20260503032029 | 44 | 232 | 0.0 | 2.0 | 0.00 | 0.00 | 0.00 | 66 | 1016.2 |
| 20260503031536 | 45 | 0 | 0.0 | 1.0 | 0.00 | 0.00 | 0.00 | 65 | 1016.4 |
| 20260503031029 | 45 | 0 | 0.0 | 1.0 | 0.00 | 0.00 | 0.00 | 65 | 1016.5 |
| 20260503030526 | 45 | 0 | 0.0 | 1.0 | 0.00 | 0.00 | 0.00 | 65 | 1016.4 |
| 20260503030041 | 45 | 0 | 0.0 | 1.0 | 0.00 | 0.00 | 0.00 | 65 | 1016.5 |
| 20260503025526 | 45 | 0 | 0.0 | 1.0 | 0.00 | 0.00 | 0.00 | 65 | 1016.4 |
| 20260503025029 | 44 | 0 | 0.0 | 1.0 | 0.00 | 0.00 | 0.00 | 66 | 1016.5 |
| 20260503024542 | 44 | 245 | 0.0 | 1.0 | 0.00 | 0.00 | 0.00 | 67 | 1016.5 |